Location: Tr�vern
(48.0333°N, 4.6000°W)
Time: 07:41:02
(UTC+00:00)

SL-8 R/B - Pass Details

Date: 14 July 2020
Orbit: 656 x 668 km, 48.4° (Epoch: 05 August)

Event Time Altitude Azimuth Distance (km) Brightness Sun altitude
Exits shadow 03:24:33 - 265° (W) 2,601 6.3 -9.5°
Reaches altitude 10° 03:25:53 10° 265° (W) 2,084 5.8 -9.4°
Maximum altitude 03:30:42 86° 353° (N) 669 3.8 -8.8°
Drops below altitude 10° 03:35:31 10° 85° (E) 2,078 7.1 -8.3°
Sets 03:37:52 0° 85° (E) 2,988 7.9 -8.0°
